Showing default

DODECAPOLE 2, 1510

Orbit data source: Space-Track

DODECAPOLE 2, 1510 is a payload satellite owned by NRL (US) in LEO that was launched on Fri, 13 Aug 1965 UTC via a THOR ABLESTAR launch vehicle from the Air Force Western Test Range (AFWTR). Payload-class satellites include a variety of spacecraft equipped with specific instruments for various scientific and technological missions. These include communications satellites like Starlink; space stations such as the ISS; scientific satellites like the Hubble; Earth observation satellites from companies like Planet Labs, Umbra, and HawkEye 360; GPS; miniature CubeSats for education and research; and military/defense satellites.

Loading next visibility...
Identifier
1510, 1965-065C
Orbit
LEO
Country
Flag of USUS
Related business
Manufacturer
NRL
Mission
Spacecraft
Bus & Motor
NRL 9", Unknown motor
Mass
4 kg wet, 4 kg dry
Launch date (UTC)
1965-08-13 (60 years ago)
Launch vehicle
THOR ABLESTAR
Launch site
Air Force Western Test Range (AFWTR)
Object type
Payload
Rocket body
Debris
Shape & HBR
Unknown
Radar Cross Section
Large (>1 m²)

Expand to show TLE details & history
Last TLE update: 1 day ago

TLE from 1 day ago
0 DODECAPOLE 2
1 01510U 65065C   25349.53227957  .00003018  00000-0  17023-2 0  9999
2 01510  90.0620  23.6991 0037494  56.2314 304.2433 14.09756403  7278
Epoch: 2025-12-15T12:46Z
TLE epoch observation values (Epoch: 2025-12-15T12:46:28.954Z)
Latitude
-0.00003°
Longitude
107.64897°
Altitude
848.041 km
Speed
7.436 km/s
True Right ascension
01h 34m 47s
True Declination
0° 00' 00"
Sunlit
Object was in daylight at epoch
Visualization orbit readout
Latitude
Unknown
Longitude
Unknown
Altitude
Unknown
Speed
Unknown
Apparent Right ascension
Unknown
Apparent Declination
Unknown
Sunlit
N/A
Visualization observer readout
Local Sidereal Time
15:13:17
Azimuth
Unknown
Elevation
Unknown
Doppler factor
Unknown
Orbital elements
Apogee altitude
884.297 km
Perigee altitude
830.04 km
Semi-major axis
7,235.306 km
Eccentricity
0.00375
Inclination
90.062°
RAAN
23.6991°
Arg. of periapsis
56.2314°
True anomaly
303.88719°
Mean anomaly
304.2433°
Eccentric anomaly
304.06534°
Mean motion
3.52661 °/min
Orbital period
102.08 mins
BSTAR
0.0017023
Loading maneuver chart data...
Computing Atmospheric mass density...
Loading historical data...
Loading historical data...
Loading historical data...
Loading historical data...
Loading historical data...
Loading historical data...
Loading historical data...

Documentation

Showing up to 5 results
|